Flag for Greece Weather past 2 weeks in Acharnes, Greece

Now
61 °F

Passing clouds.


Feels Like: 61 °F
Forecast: 57 / 67 °F
Wind: 15 mph from South

Location: Elefsis Airport

Current Time: Feb 1, 2015 at 1:07:34 AM

Latest Report: Feb 1, 2015 at 12:20 AM


Visibility: N/A

Pressure: 29.42 "Hg

Humidity: 72%

Dew point: 52 °F

Location of AcharnesLocation

Historic Weather in Acharnes — Graph

°F

Acharnes temperature yesterday

Maximum temperature yesterday: 64 °F (at 11:50 AM)
Minimum temperature yesterday: 57 °F (at 12:20 AM)
Average temperature yesterday: 60 °F

Past Weeks' High & Low Weather Summary

 TemperatureHumidityPressure
High64 °F (Jan 20, 2:20 PM)100% (Jan 20, 4:20 AM)30.33 "Hg (Jan 20, 4:20 AM)
Low36 °F (Jan 17, 3:50 AM)41% (Jan 17, 11:50 AM)29.39 "Hg (Jan 31, 4:50 AM)
Average53 °F78%29.89 "Hg
* Reported Jan 16 11:20 PM — Jan 31 11:50 PM, Acharnes, Weather by CustomWeather, © 2014

Note: Actual official high and low records may vary slightly from our data, if they occured in-between our weather recording intervals... More about our weather records

Advertising

Acharnes weather history for previous 24 hours

 ConditionsComfort  
Time TempWeatherWind HumidityBarometerVisibility
11:50 PM
Jan 31
61 °FPassing clouds.14 mph72%29.42 "HgN/A
11:20 PM61 °FPassing clouds.13 mph72%29.45 "HgN/A
10:20 PM61 °FPassing clouds.14 mph72%29.45 "HgN/A
9:50 PM61 °FPassing clouds.15 mph68%29.42 "HgN/A
9:20 PM61 °FPassing clouds.15 mph68%29.45 "HgN/A
8:50 PM59 °FPassing clouds.15 mph72%29.45 "HgN/A
8:20 PM59 °FPassing clouds.10 mph77%29.45 "HgN/A
7:50 PM59 °FPassing clouds.15 mph77%29.45 "HgN/A
7:20 PM61 °FPassing clouds.15 mph68%29.42 "HgN/A
6:50 PM61 °FPassing clouds.17 mph68%29.42 "HgN/A
6:20 PM61 °FPartly cloudy.15 mph68%29.39 "Hg6 mi
5:50 PM61 °FPartly cloudy.15 mph68%29.39 "Hg6 mi
5:20 PM61 °FBroken clouds.23 mph72%29.39 "Hg5 mi
4:50 PM61 °FBroken clouds.23 mph72%29.39 "Hg5 mi
4:20 PM63 °FBroken clouds.17 mph68%29.39 "Hg5 mi
3:50 PM63 °FBroken clouds.17 mph68%29.39 "HgN/A
3:20 PM63 °FBroken clouds.17 mph68%29.39 "HgN/A
2:50 PM63 °FBroken clouds.17 mph68%29.39 "Hg5 mi
2:20 PM63 °FBroken clouds.12 mph68%29.42 "Hg5 mi
1:50 PM63 °FBroken clouds.12 mph68%29.42 "Hg5 mi
1:20 PM64 °FBroken clouds.14 mph64%29.42 "Hg5 mi
12:50 PM63 °FBroken clouds.17 mph68%29.42 "Hg5 mi
12:20 PM64 °FBroken clouds.12 mph64%29.42 "Hg5 mi
11:50 AM64 °FPartly sunny.14 mph64%29.45 "HgN/A
11:20 AM63 °FPartly sunny.12 mph64%29.47 "HgN/A
10:50 AM63 °FPartly sunny.7 mph64%29.47 "HgN/A
10:20 AM61 °FPartly sunny.8 mph68%29.45 "HgN/A
9:50 AM61 °FPartly sunny.8 mph68%29.45 "HgN/A
9:20 AM59 °FPartly sunny.5 mph63%29.45 "HgN/A
8:50 AM59 °FPartly sunny.5 mph63%29.45 "HgN/A
8:20 AM59 °FPartly sunny.6 mph59%29.42 "HgN/A
7:50 AM59 °FPartly sunny.6 mph59%29.42 "HgN/A
7:20 AM57 °FPassing clouds.9 mph63%29.42 "HgN/A
6:50 AM57 °FPassing clouds.9 mph63%29.42 "HgN/A
6:20 AM59 °FPassing clouds.12 mph55%29.42 "HgN/A
5:50 AM57 °FPartly cloudy.9 mph67%29.42 "HgN/A
4:50 AM57 °FPartly cloudy.12 mph67%29.39 "HgN/A
4:20 AM57 °FPartly cloudy.12 mph63%29.42 "HgN/A
3:50 AM57 °FPartly cloudy.12 mph63%29.42 "HgN/A
3:20 AM57 °FPartly cloudy.12 mph63%29.42 "HgN/A
2:50 AM57 °FPartly cloudy.12 mph63%29.42 "HgN/A
1:50 AM57 °FPartly cloudy.9 mph63%29.47 "HgN/A
1:20 AM57 °FPartly cloudy.7 mph63%29.47 "HgN/A
Weather by CustomWeather, © 2014

See weather overviewHow to use our weather pages